Total_Precipitation_Accumulation
1.74 1.77 1.68 1.61 1.49 1.40 1.30 1.26 1.18 1.11 1.08 1.04 1.03 1.00 0.97 0.95 0.94 0.93 0.91 0.90 0.95 1.07 1.14 1.19 1.25 1.29 1.38 1.42 1.45 1.51 1.63 1.73 1.82 1.76 1.60 1.56 1.58 1.55 1.47 1.28 1.19 1.17 1.20
1.33 1.31 1.28 1.23 1.14 1.10 1.07 1.03 1.04 1.01 0.96 0.97 0.96 0.94 0.95 0.97 1.00 0.95 0.86 0.83 0.88 0.96 1.02 1.08 1.09 1.10 1.18 1.28 1.35 1.34 1.40 1.50 1.61 1.67 1.58 1.46 1.44 1.45 1.41 1.32 1.12 1.02 1.02
1.12 1.11 1.06 1.10 1.07 1.04 1.06 1.06 1.05 1.00 0.96 0.91 0.86 0.88 0.94 0.97 0.95 0.92 0.86 0.83 0.82 0.85 0.88 0.89 0.92 0.96 0.97 1.01 1.08 1.14 1.18 1.21 1.34 1.37 1.36 1.31 1.27 1.23 1.27 1.24 1.13 1.13 0.96
1.06 1.02 0.94 0.91 0.93 0.96 0.97 0.99 0.96 0.92 0.91 0.91 0.89 0.86 0.85 0.80 0.72 0.68 0.68 0.68 0.67 0.68 0.69 0.71 0.78 0.85 0.86 0.87 0.87 0.92 0.97 1.09 1.18 1.22 1.20 1.19 1.18 1.11 1.14 1.17 1.14 1.07 0.96
1.18 1.12 1.03 0.93 0.91 0.93 0.93 0.91 0.87 0.82 0.76 0.75 0.73 0.71 0.66 0.56 0.48 0.46 0.51 0.53 0.56 0.58 0.60 0.58 0.59 0.68 0.76 0.73 0.68 0.77 0.89 1.00 1.06 1.09 1.04 0.99 0.98 1.03 1.04 1.00 0.97 0.95 0.90
1.27 1.32 1.32 1.24 1.17 1.13 1.04 0.93 0.90 0.87 0.79 0.68 0.62 0.62 0.56 0.44 0.43 0.40 0.44 0.52 0.57 0.59 0.62 0.62 0.56 0.56 0.57 0.55 0.56 0.69 0.84 0.88 0.92 0.99 0.97 0.97 0.97 0.98 0.99 0.98 1.01 1.02 1.01
1.33 1.35 1.31 1.30 1.28 1.23 1.08 0.97 0.94 0.91 0.87 0.83 0.72 0.65 0.63 0.57 0.46 0.40 0.43 0.52 0.59 0.60 0.59 0.58 0.50 0.48 0.52 0.53 0.55 0.59 0.67 0.69 0.76 0.90 1.00 0.97 0.99 1.03 1.08 1.03 1.09 1.13 1.08
1.35 1.34 1.30 1.19 1.16 1.08 1.01 0.99 0.95 0.88 0.85 0.82 0.77 0.69 0.62 0.48 0.35 0.29 0.31 0.42 0.54 0.56 0.55 0.55 0.57 0.56 0.51 0.52 0.52 0.55 0.65 0.72 0.73 0.76 0.93 0.93 0.90 0.95 1.02 1.08 1.14 1.15 1.11
1.34 1.25 1.18 1.09 1.04 0.97 0.94 0.88 0.81 0.74 0.71 0.68 0.63 0.57 0.56 0.45 0.26 0.20 0.23 0.40 0.53 0.51 0.46 0.43 0.47 0.52 0.52 0.50 0.54 0.66 0.74 0.80 0.67 0.66 0.76 0.83 0.86 0.90 0.90 0.97 1.15 1.30 1.25
1.11 0.94 0.88 0.90 0.88 0.84 0.78 0.71 0.67 0.66 0.65 0.56 0.49 0.48 0.48 0.43 0.27 0.21 0.25 0.39 0.49 0.47 0.46 0.44 0.41 0.42 0.43 0.43 0.53 0.67 0.78 0.79 0.71 0.72 0.88 0.97 0.95 1.01 0.97 1.00 1.21 1.29 1.24
0.94 0.81 0.77 0.76 0.70 0.67 0.65 0.65 0.61 0.57 0.60 0.59 0.56 0.51 0.44 0.35 0.23 0.19 0.21 0.30 0.41 0.46 0.47 0.49 0.44 0.33 0.31 0.34 0.47 0.57 0.64 0.63 0.73 0.90 1.00 1.02 1.04 1.08 1.03 0.99 1.12 1.21 1.28
0.89 0.83 0.77 0.68 0.56 0.56 0.65 0.63 0.60 0.62 0.66 0.65 0.62 0.56 0.43 0.33 0.21 0.17 0.19 0.24 0.28 0.40 0.49 0.47 0.41 0.32 0.31 0.35 0.45 0.52 0.54 0.62 0.81 0.99 1.08 1.06 0.98 0.95 0.96 0.93 1.01 1.06 1.11
0.88 0.86 0.74 0.60 0.61 0.60 0.64 0.61 0.54 0.53 0.50 0.46 0.46 0.46 0.40 0.32 0.24 0.19 0.21 0.24 0.27 0.32 0.38 0.34 0.32 0.33 0.37 0.49 0.51 0.51 0.61 0.81 0.93 1.01 1.09 1.08 0.98 0.90 0.86 0.81 0.88 0.98 0.99
0.95 0.88 0.71 0.59 0.56 0.54 0.52 0.47 0.41 0.41 0.40 0.38 0.36 0.34 0.34 0.35 0.30 0.28 0.29 0.28 0.30 0.33 0.36 0.37 0.41 0.46 0.51 0.60 0.67 0.77 0.82 0.87 0.87 0.96 1.02 0.97 0.86 0.81 0.84 0.83 0.89 0.95 1.00
0.92 0.78 0.65 0.53 0.47 0.44 0.36 0.29 0.25 0.22 0.20 0.25 0.26 0.24 0.28 0.29 0.25 0.26 0.26 0.25 0.27 0.27 0.29 0.46 0.67 0.74 0.80 0.86 0.88 0.93 0.98 0.91 0.85 0.86 0.89 0.90 0.86 0.83 0.82 0.78 0.85 0.88 0.94
0.81 0.63 0.52 0.46 0.39 0.32 0.28 0.26 0.18 0.14 0.11 0.10 0.12 0.13 0.14 0.16 0.16 0.18 0.20 0.22 0.24 0.27 0.33 0.56 0.69 0.74 0.80 0.81 0.82 0.86 0.92 0.92 0.85 0.81 0.81 0.82 0.81 0.78 0.80 0.75 0.74 0.83 0.90
0.65 0.50 0.38 0.33 0.33 0.30 0.27 0.32 0.33 0.20 0.12 0.10 0.10 0.11 0.12 0.12 0.12 0.14 0.17 0.22 0.28 0.37 0.50 0.64 0.66 0.71 0.75 0.71 0.70 0.76 0.80 0.79 0.72 0.71 0.70 0.69 0.68 0.69 0.75 0.76 0.71 0.70 0.70
0.36 0.26 0.22 0.25 0.24 0.22 0.21 0.23 0.26 0.30 0.31 0.25 0.17 0.13 0.12 0.13 0.14 0.17 0.22 0.29 0.42 0.51 0.59 0.64 0.64 0.64 0.67 0.66 0.65 0.65 0.63 0.58 0.54 0.57 0.62 0.64 0.64 0.65 0.66 0.68 0.62 0.58 0.61
0.23 0.21 0.18 0.16 0.14 0.15 0.14 0.15 0.16 0.21 0.30 0.32 0.24 0.16 0.14 0.19 0.22 0.25 0.31 0.40 0.51 0.53 0.53 0.54 0.55 0.55 0.56 0.61 0.61 0.55 0.51 0.47 0.45 0.46 0.50 0.55 0.57 0.55 0.57 0.55 0.49 0.42 0.48
0.16 0.13 0.13 0.13 0.13 0.12 0.11 0.12 0.14 0.18 0.22 0.25 0.24 0.17 0.17 0.27 0.39 0.41 0.41 0.41 0.42 0.42 0.43 0.45 0.44 0.42 0.45 0.48 0.47 0.43 0.41 0.42 0.41 0.39 0.40 0.40 0.41 0.44 0.46 0.43 0.40 0.39 0.43
0.09 0.07 0.07 0.09 0.11 0.10 0.10 0.11 0.12 0.14 0.17 0.19 0.16 0.13 0.18 0.28 0.39 0.41 0.42 0.40 0.38 0.39 0.41 0.39 0.36 0.34 0.34 0.35 0.37 0.38 0.37 0.37 0.37 0.38 0.37 0.34 0.33 0.34 0.33 0.32 0.31 0.30 0.29
0.08 0.08 0.08 0.09 0.09 0.08 0.09 0.10 0.11 0.13 0.14 0.15 0.15 0.13 0.20 0.28 0.36 0.40 0.43 0.41 0.37 0.35 0.34 0.34 0.31 0.30 0.29 0.30 0.31 0.29 0.28 0.29 0.31 0.34 0.33 0.30 0.29 0.28 0.27 0.25 0.26 0.28 0.26
0.07 0.06 0.06 0.06 0.05 0.07 0.07 0.08 0.08 0.09 0.11 0.12 0.14 0.17 0.22 0.29 0.36 0.40 0.40 0.35 0.28 0.25 0.27 0.29 0.28 0.26 0.24 0.22 0.20 0.19 0.18 0.18 0.21 0.26 0.28 0.27 0.27 0.24 0.22 0.22 0.20 0.24 0.24
0.05 0.05 0.04 0.04 0.04 0.05 0.06 0.06 0.07 0.07 0.09 0.12 0.15 0.16 0.18 0.25 0.29 0.31 0.32 0.27 0.22 0.20 0.20 0.21 0.21 0.18 0.16 0.15 0.15 0.14 0.14 0.14 0.13 0.14 0.18 0.21 0.24 0.20 0.18 0.18 0.18 0.20 0.23
0.03 0.03 0.04 0.03 0.04 0.05 0.04 0.04 0.06 0.07 0.09 0.12 0.13 0.14 0.14 0.16 0.17 0.19 0.21 0.23 0.21 0.18 0.17 0.16 0.15 0.13 0.12 0.12 0.11 0.10 0.11 0.12 0.10 0.10 0.11 0.13 0.17 0.17 0.18 0.21 0.21 0.22 0.24
0.02 0.03 0.03 0.03 0.04 0.04 0.03 0.04 0.07 0.08 0.08 0.09 0.10 0.11 0.12 0.13 0.14 0.14 0.15 0.16 0.15 0.15 0.15 0.14 0.13 0.12 0.12 0.12 0.12 0.11 0.11 0.09 0.08 0.09 0.10 0.13 0.17 0.18 0.19 0.20 0.22 0.25 0.28